[[{"header":{"parameterUnit":"m.s-1","parameterCategory":1,"la1":30.2991,"la2":30.254,"lo1":-89.0895,"lo2":-89.0444,"dy":0.0017,"dx":0.0017,"nx":28,"ny":28,"refTime":"2024-08-30T09:00:00:Z","depth":0,"parameterNumber":2,"parameterNumberName":"U-component_of_WINDS"},"data":[0,0,0,0,0,0,0,0,0,0,0,0,0,0,0,0,0,0,0,0,0,0,0,0,0,0,0,0,0,0,0,0,0,0,0,0,0,0,0,0,0,0,0,0,0,0,0,0,0,0,0,0,0,0,0,0,0,0,-4.2132,-4.2132,0,-4.2124,-4.2124,-4.2124,-4.2025,-4.2022,-4.202,-4.2018,-4.201,-4.2012,-4.2014,0,0,0,0,0,0,0,0,0,0,0,0,0,-4.2062,-4.2064,-4.2132,-4.2132,-4.2132,-4.2124,-4.2124,-4.2123,-4.2025,-4.2022,-4.2019,-4.2016,-4.2009,-4.2011,-4.2014,0,0,0,0,0,0,0,0,0,0,0,0,0,-4.2077,-4.2065,-4.2132,-4.2082,-4.2077,-4.2124,-4.2124,-4.2123,-4.2026,-4.2022,-4.2018,-4.2015,-4.2008,-4.2011,-4.2014,-4.2109,0,0,-4.2024,-4.2025,0,0,0,0,0,0,0,0,-4.2076,-4.208,-4.2089,-4.2085,-4.208,-4.2071,-4.2096,-4.2119,-4.2027,-4.2045,-4.2017,-4.2013,-4.2033,-4.2034,-4.2041,-4.2108,-4.2108,-4.2024,-4.2026,-4.2028,-4.2028,0,0,0,0,0,0,0,-4.2076,-4.208,-4.2129,-4.2089,-4.2084,-4.2059,-4.2058,-4.21,-4.206,-4.2043,-4.2036,-4.2037,-4.203,-4.2038,-4.204,-4.2108,-4.2024,-4.2027,-4.2029,-4.203,-4.2249,-4.2253,0,0,0,0,0,0,-4.2081,-4.2079,-4.2129,-4.2128,-4.2069,-4.2064,-4.2062,-4.2078,-4.206,-4.2053,-4.204,-4.2032,-4.2034,-4.2036,-4.2039,-4.2145,-4.2028,-4.203,-4.2032,-4.2246,-4.225,-4.2255,0,0,0,0,0,0,-4.208,-4.2087,-4.2129,-4.2102,-4.2105,-4.2069,-4.2088,-4.208,-4.2087,-4.2057,-4.2049,-4.2055,-4.2032,-4.2035,-4.2091,-4.2144,-4.2032,-4.2035,-4.2241,-4.2247,-4.2252,-4.2361,0,0,0,0,0,0,-4.2079,-4.2087,-4.2122,-4.2103,-4.2107,-4.2182,-4.2092,-4.2082,-4.2093,-4.2083,-4.2069,-4.2063,-4.2029,-4.2087,-4.2095,-4.2146,-4.2037,-4.2236,-4.2244,-4.2251,-4.2352,-4.237,-4.2385,0,0,0,0,0,-4.2077,-4.2154,-4.2125,-4.2131,-4.2151,-4.2185,-4.2187,-4.2146,-4.2098,-4.2133,-4.2113,-4.2064,-4.2138,-4.2094,-4.2101,-4.2155,-4.2232,-4.2241,-4.225,-4.2345,-4.2366,-4.2384,0,0,0,0,0,0,-4.2181,-4.2151,-4.2118,-4.2191,-4.2192,-4.2168,-4.2211,-4.217,-4.2184,-4.2174,-4.2122,-4.212,-4.2184,-4.2175,-4.2127,-4.2244,-4.2176,-4.2187,-4.2246,-4.2266,-4.2282,-4.2281,-4.204,0,0,0,0,0,-4.2212,-4.2242,-4.2215,-4.2282,-4.2284,-4.2248,-4.2261,-4.223,-4.2227,-4.2227,-4.2211,-4.2211,-4.2234,-4.225,-4.227,-4.2352,-4.2346,-4.2393,-4.2409,-4.2422,-4.2431,-4.2471,-4.249,-4.2284,-4.2283,-4.2283,0,0,-4.2277,-4.2265,-4.2287,-4.2303,-4.2299,-4.2331,-4.2249,-4.2286,-4.2309,-4.2233,-4.2284,-4.2273,-4.227,-4.2339,-4.2368,-4.2334,-4.2487,-4.2433,-4.2444,-4.2446,-4.2482,-4.2502,-4.2519,-4.229,-4.2288,-4.2288,0,0,-4.2411,-4.2406,-4.246,-4.2458,-4.2453,-4.2429,-4.2442,-4.2425,-4.2414,-4.2466,-4.2408,-4.2435,-4.2477,-4.2476,-4.2481,-4.2615,-4.2569,-4.2623,-4.2706,-4.2746,-4.2762,-4.2776,-4.2821,-4.2838,-4.2633,-4.2633,-4.2633,0,-4.2493,-4.2538,-4.2494,-4.2534,-4.2542,-4.2475,-4.2528,-4.2529,-4.2531,-4.2538,-4.25,-4.2549,-4.2542,-4.2608,-4.2641,-4.2649,-4.2661,-4.2623,-4.2763,-4.2777,-4.2789,-4.2831,-4.2849,-4.2639,-4.2639,-4.2638,-4.2637,0,-4.2636,-4.2669,-4.2714,-4.2716,-4.2729,-4.2777,-4.2739,-4.2758,-4.2726,-4.2705,-4.2757,-4.2747,-4.2762,-4.2777,-4.2746,-4.2839,-4.2817,-4.2772,-4.2703,-4.2816,-4.2854,-4.2871,-4.2648,-4.2646,-4.2644,-4.2643,0,0,-4.2833,-4.2811,-4.2828,-4.2827,-4.2817,-4.2841,-4.2885,-4.29,-4.2915,-4.292,-4.2954,-4.2991,-4.2949,-4.2955,-4.2924,-4.2959,-4.3062,-4.2909,-4.2908,-4.2935,-4.3161,-4.3192,-4.3211,-4.3034,-4.3037,-4.3039,-4.316,0,-4.296,-4.3032,-4.2994,-4.3071,-4.3099,-4.3037,-4.3075,-4.3073,-4.3055,-4.3077,-4.3058,-4.3083,-4.3027,-4.303,-4.3063,-4.3043,-4.3106,-4.3034,-4.3063,-4.3065,-4.3062,-4.3232,-4.3265,-4.3379,-4.3175,-4.3177,-4.3179,0,-4.3116,-4.3125,-4.3206,-4.3188,-4.3199,-4.3234,-4.3243,-4.3265,-4.3261,-4.3246,-4.3253,-4.3213,-4.3254,-4.3189,-4.3244,-4.3196,-4.3206,-4.3199,-4.3202,-4.32,-4.3126,-4.3231,-4.3415,-4.3431,-4.3203,-4.3201,-4.32,0,-4.3247,-4.3281,-4.3332,-4.3334,-4.3316,-4.3342,-4.3336,-4.3328,-4.3339,-4.3348,-4.3354,-4.3368,-4.3375,-4.3387,-4.3352,-4.3308,-4.3412,-4.3344,-4.3398,-4.3399,-4.342,-4.3418,-4.3604,-4.3433,-4.3433,-4.3433,-4.3432,0,-4.3389,-4.344,-4.339,-4.3421,-4.3476,-4.3432,-4.3487,-4.3474,-4.3469,-4.3496,-4.3444,-4.3471,-4.3425,-4.3447,-4.3421,-4.3469,-4.3474,-4.3461,-4.3453,-4.3464,-4.3465,-4.3467,-4.3457,-4.3437,-4.3436,-4.3435,-4.3435,0,-4.3543,-4.3512,-4.3563,-4.3543,-4.3538,-4.3579,-4.3561,-4.3589,-4.3569,-4.3604,-4.361,-4.3578,-4.3601,-4.3568,-4.3589,-4.3571,-4.3637,-4.3618,-4.3637,-4.363,-4.3686,-4.3679,-4.3876,-4.3899,-4.3717,-4.3719,-4.372,0,-4.3634,-4.3671,-4.3654,-4.3668,-4.3665,-4.3689,-4.3699,-4.3658,-4.3671,-4.3669,-4.3697,-4.3716,-4.3729,-4.3769,-4.3748,-4.3763,-4.3742,-4.381,-4.3744,-4.3753,-4.3739,-4.3736,-4.3738,-4.3823,-4.3825,-4.3827,-4.3828,0,-4.3798,-4.3781,-4.3797,-4.3808,-4.3822,-4.3829,-4.3832,-4.3847,-4.3803,-4.3821,-4.3843,-4.3853,-4.3874,-4.3893,-4.3902,-4.3896,-4.3854,-4.385,-4.3862,-4.3872,-4.388,-4.3873,-4.367,-4.3844,-4.3843,-4.3842,-4.3841,-4.384,-4.3921,-4.395,-4.3941,-4.3961,-4.3959,-4.3963,-4.3987,-4.397,-4.3988,-4.4,-4.3976,-4.4004,-4.3999,-4.4008,-4.4006,-4.4028,-4.3998,-4.4018,-4.4022,-4.4026,-4.4033,-4.388,-4.403,-4.403,-4.4029,-4.4029,-4.4028,0,-4.4078,-4.407,-4.4089,-4.4094,-4.4109,-4.407,-4.4071,-4.4087,-4.4112,-4.4111,-4.4124,-4.415,-4.4168,-4.4149,-4.4163,-4.4184,-4.4165,-4.4189,-4.4185,-4.4183,-4.4061,-4.4046,-4.4203,-4.4203,-4.4203,-4.4203,-4.4203,-4.4203,-4.4162,-4.4208,-4.419,-4.4234,-4.4225,-4.4252,-4.4256,-4.4259,-4.4257,-4.4288,-4.4302,-4.429,-4.428,-4.4294,-4.4308,-4.4302,-4.4308,-4.4338,-4.4325,-4.421,-4.4192,-4.4176,-4.4162,-4.4341,-4.4341,-4.4445,-4.4446,-4.4447]},{"header":{"parameterUnit":"m.s-1","parameterCategory":1,"la1":30.2991,"la2":30.254,"lo1":-89.0895,"lo2":-89.0444,"dy":0.0017,"dx":0.0017,"nx":28,"ny":28,"refTime":"2024-08-30T09:00:00:Z","depth":0,"parameterNumber":3,"parameterNumberName":"V-component_of_WINDS"},"data":[0,0,0,0,0,0,0,0,0,0,0,0,0,0,0,0,0,0,0,0,0,0,0,0,0,0,0,0,0,0,0,0,0,0,0,0,0,0,0,0,0,0,0,0,0,0,0,0,0,0,0,0,0,0,0,0,0,0,-0.1075,-0.1074,0,-0.0983,-0.0982,-0.0981,-0.0975,-0.0976,-0.0977,-0.0978,-0.0881,-0.0877,-0.0874,0,0,0,0,0,0,0,0,0,0,0,0,0,-0.124,-0.1237,-0.1075,-0.1074,-0.1072,-0.0983,-0.0982,-0.0981,-0.0975,-0.0976,-0.0977,-0.0978,-0.0882,-0.0878,-0.0874,0,0,0,0,0,0,0,0,0,0,0,0,0,-0.116,-0.1236,-0.1075,-0.1059,-0.1056,-0.0984,-0.0982,-0.0981,-0.0974,-0.0976,-0.0977,-0.0979,-0.0883,-0.0878,-0.0873,-0.081,0,0,-0.0857,-0.0855,0,0,0,0,0,0,0,0,-0.1165,-0.1154,-0.1062,-0.106,-0.1057,-0.0992,-0.1005,-0.0923,-0.0974,-0.1005,-0.0978,-0.098,-0.0916,-0.0908,-0.0888,-0.0805,-0.0801,-0.0856,-0.0853,-0.0851,-0.0849,0,0,0,0,0,0,0,-0.117,-0.1158,-0.1038,-0.1061,-0.1058,-0.1055,-0.1045,-0.0989,-0.0953,-0.1003,-0.1002,-0.0991,-0.0915,-0.0893,-0.0886,-0.0799,-0.0857,-0.0852,-0.0849,-0.0846,-0.0659,-0.0657,0,0,0,0,0,0,-0.118,-0.1163,-0.1041,-0.1036,-0.1116,-0.105,-0.104,-0.1011,-0.0954,-0.0947,-0.099,-0.0991,-0.0901,-0.0892,-0.0882,-0.0803,-0.0851,-0.0846,-0.0843,-0.066,-0.0658,-0.0656,0,0,0,0,0,0,-0.1183,-0.1169,-0.1045,-0.1099,-0.1083,-0.1046,-0.1014,-0.1009,-0.0986,-0.0944,-0.0938,-0.0974,-0.0902,-0.089,-0.0828,-0.08,-0.0844,-0.0839,-0.0662,-0.066,-0.0657,-0.0646,0,0,0,0,0,0,-0.1188,-0.117,-0.1147,-0.1099,-0.108,-0.0993,-0.1012,-0.1006,-0.0978,-0.0978,-0.0928,-0.0921,-0.0902,-0.0836,-0.0822,-0.0793,-0.0835,-0.0665,-0.0661,-0.0658,-0.0648,-0.0643,-0.0638,0,0,0,0,0,-0.1194,-0.1146,-0.1145,-0.1131,-0.105,-0.0992,-0.0981,-0.0962,-0.0976,-0.0951,-0.0924,-0.0922,-0.0805,-0.0829,-0.0814,-0.0783,-0.0666,-0.0662,-0.0658,-0.065,-0.0644,-0.0638,0,0,0,0,0,0,-0.1191,-0.114,-0.1138,-0.1074,-0.1037,-0.0991,-0.0959,-0.0955,-0.0913,-0.0915,-0.0892,-0.0881,-0.0819,-0.0795,-0.0823,-0.0718,-0.0737,-0.073,-0.0736,-0.073,-0.0725,-0.0731,-0.083,0,0,0,0,0,-0.1183,-0.1141,-0.1098,-0.1046,-0.1027,-0.0996,-0.097,-0.0958,-0.0919,-0.0903,-0.0871,-0.0832,-0.0786,-0.0757,-0.0712,-0.0645,-0.0633,-0.0616,-0.0611,-0.0607,-0.0601,-0.0562,-0.0554,-0.0643,-0.0643,-0.0643,0,0,-0.1166,-0.1133,-0.1107,-0.1044,-0.1014,-0.097,-0.0983,-0.0936,-0.0902,-0.0895,-0.0835,-0.0811,-0.0765,-0.07,-0.067,-0.0678,-0.0574,-0.0602,-0.0599,-0.0595,-0.0557,-0.0549,-0.0541,-0.064,-0.0641,-0.0641,0,0,-0.1112,-0.1083,-0.1036,-0.1006,-0.0961,-0.094,-0.0929,-0.0883,-0.0866,-0.0806,-0.0799,-0.0759,-0.0681,-0.0648,-0.0622,-0.0555,-0.0552,-0.0541,-0.0514,-0.0477,-0.047,-0.0463,-0.0439,-0.043,-0.0535,-0.0535,-0.0535,0,-0.1096,-0.103,-0.1012,-0.0964,-0.0936,-0.0929,-0.088,-0.0851,-0.0794,-0.0774,-0.0784,-0.0686,-0.0655,-0.0581,-0.0565,-0.0544,-0.0529,-0.0546,-0.0473,-0.0466,-0.046,-0.0436,-0.0427,-0.0534,-0.0534,-0.0534,-0.0534,0,-0.1012,-0.0966,-0.0933,-0.0879,-0.0847,-0.0799,-0.0772,-0.0742,-0.0733,-0.0711,-0.0649,-0.0611,-0.0559,-0.0541,-0.0531,-0.0465,-0.0472,-0.0478,-0.0496,-0.045,-0.0428,-0.0418,-0.0532,-0.0533,-0.0533,-0.0533,0,0,-0.0953,-0.089,-0.0878,-0.0853,-0.0802,-0.0766,-0.0717,-0.0667,-0.0641,-0.0601,-0.0559,-0.0493,-0.0498,-0.0467,-0.0454,-0.0421,-0.037,-0.0431,-0.0429,-0.042,-0.0294,-0.029,-0.0279,-0.0368,-0.0366,-0.0364,-0.0298,0,-0.0893,-0.0808,-0.079,-0.0715,-0.0672,-0.0664,-0.0622,-0.0585,-0.0564,-0.0523,-0.0498,-0.0451,-0.0462,-0.0443,-0.0411,-0.0383,-0.0344,-0.0388,-0.0327,-0.0325,-0.0338,-0.0268,-0.0263,-0.0202,-0.0289,-0.0287,-0.0286,0,-0.0811,-0.0771,-0.0693,-0.0648,-0.0629,-0.0591,-0.0543,-0.0505,-0.0463,-0.0449,-0.0415,-0.0405,-0.0353,-0.0374,-0.0301,-0.0331,-0.0305,-0.0287,-0.0284,-0.0278,-0.0302,-0.0258,-0.0182,-0.0172,-0.0272,-0.0273,-0.0274,0,-0.0775,-0.0701,-0.0644,-0.0623,-0.057,-0.0543,-0.0519,-0.0479,-0.045,-0.0407,-0.0388,-0.034,-0.0313,-0.0275,-0.0252,-0.027,-0.018,-0.02,-0.0166,-0.0167,-0.0147,-0.0148,-0.0065,-0.0131,-0.0132,-0.0132,-0.0132,0,-0.071,-0.0662,-0.0628,-0.0593,-0.0538,-0.0517,-0.0464,-0.044,-0.0404,-0.0363,-0.0353,-0.0315,-0.0287,-0.0244,-0.0225,-0.0167,-0.0155,-0.0142,-0.0137,-0.0142,-0.0144,-0.0124,-0.0128,-0.0129,-0.013,-0.013,-0.0131,0,-0.066,-0.0636,-0.0573,-0.0528,-0.0515,-0.0477,-0.0437,-0.0402,-0.038,-0.0329,-0.0315,-0.028,-0.023,-0.0203,-0.0139,-0.0126,-0.0061,-0.0059,-0.0075,-0.0073,-0.0041,-0.0044,0.0059,0.0074,-0.0003,-0.0003,-0.0002,0,-0.0619,-0.0582,-0.0533,-0.0506,-0.0482,-0.0438,-0.0408,-0.0386,-0.0355,-0.0304,-0.0275,-0.0224,-0.0182,-0.0101,-0.0069,-0.002,-0.0016,0.0016,-0.0009,-0.0015,-0.0015,-0.0017,-0.0013,0.0021,0.0022,0.0022,0.0023,0,-0.0549,-0.0539,-0.0497,-0.0451,-0.0416,-0.0378,-0.0341,-0.0318,-0.029,-0.0255,-0.0204,-0.0172,-0.0107,-0.0056,-0.0004,0.0022,0.0028,0.003,0.0041,0.0036,0.0026,0.0033,-0.0062,0.0028,0.0027,0.0027,0.0027,0.0027,-0.0502,-0.0469,-0.0429,-0.0383,-0.0352,-0.0317,-0.0282,-0.0256,-0.0214,-0.016,-0.0149,-0.0094,-0.0052,0.0017,0.0045,0.0089,0.0082,0.0097,0.0101,0.0105,0.0107,0.0018,0.0098,0.0098,0.0098,0.0098,0.0098,0,-0.0431,-0.0405,-0.0363,-0.0311,-0.0274,-0.0274,-0.0232,-0.0201,-0.0153,-0.0115,-0.0074,-0.0015,0.0035,0.007,0.0121,0.015,0.0154,0.0163,0.0161,0.0167,0.0109,0.0095,0.0158,0.0158,0.0158,0.0158,0.0158,0.0158,-0.0389,-0.0333,-0.0318,-0.0245,-0.0219,-0.0167,-0.0143,-0.011,-0.008,-0.0014,0.0026,0.0049,0.0086,0.014,0.0186,0.0195,0.0214,0.0223,0.0232,0.0178,0.0171,0.0165,0.0152,0.0226,0.0226,0.0287,0.0288,0.0288]}]]